sat.trackr.live / text

‹ back to catalog

STARLINK-5249

NORAD 54205 · 2022-141BA

PAYLOAD ACTIVE UNKNOWN

§ Identity

Operator
Country
US
Launch date
2022-10-28
Launch site
AFWTR
Launch vehicle
Mass (kg)
RCS (m²)

Purposes: comms

External: N2YO · Heavens-Above · Gunter

§ Orbital elements

Epoch: 2026-05-25T00:04:56.091072Z

Period
95.44 min
Inclination
53.2142°
Eccentricity
0.0001549
Mean motion
15.08835989 rev/d
Perigee alt
538.7 km
Apogee alt
540.8 km
Semi-major
6,917.9 km
B*
-1.2142e-5
RAAN
11.1802°
Arg perigee
89.8419°
Mean anomaly
270.2751°
Rev number
19,752

§ Raw data

STARLINK-52491 54205U 22141BA  26145.00342698 -.00000481  00000+0 -12142-4 0  99942 54205  53.2142  11.1802 0001549  89.8419 270.2751 15.08835989197520

JSON: /api/v1/satellites/54205 · /tle

For live sub-satellite position, see the globe view (requires WebGL).

§ Visibility from observer

Set your observer location to see the next 7 days of passes ≥ 10°. The values pass through the URL so the page stays shareable.

No JS? Fill the form by hand. The geolocation button needs JavaScript.